Torna al catalogo

NAXING 1

AttivoScienzaSSO
NORAD 28221·PAYLOAD·🇨🇳 China

Lanciato Apr 18, 2004 da Xichang Satellite Launch Center

Loading…

Prossimi Passaggi (prossime 24 ore)

TLE

AggiornatoSource: Space-Track

Epoca: Sep 14, 2026, 07:42 UTC

1 28221U 04012B   26257.32092309  .00001311  00000-0  94044-4 0  9993
2 28221  97.9990 288.4606 0011463 145.4338 214.7636 15.06180393220668

Traccia NAXING 1 in tempo reale con AllMySat

Download on the App Store